Flag for Sweden Weather past 2 weeks in Norrköping, Sweden

Now
43 °F

Quite cool.


Feels Like: 39 °F
Forecast: 43 / 52 °F
Wind: 6 mph from Southwest

Location: Norrkoping Airport

Current Time: May 29, 2015 at 5:14:25 AM

Latest Report: May 29, 2015 at 4:20 AM


Visibility: N/A

Pressure: 29.65 "Hg

Humidity: 93%

Dew point: 41 °F

Location of NorrköpingLocation

Historic Weather in Norrköping — Graph

°F

Norrköping temperature yesterday

Maximum temperature yesterday: 61 °F (at 12:50 PM)
Minimum temperature yesterday: 37 °F (at 4:20 AM)
Average temperature yesterday: 51 °F

Past Weeks' High & Low Weather Summary

 TemperatureHumidityPressure
High63 °F (May 21, 4:50 PM)100% (May 16, 4:50 AM)30.12 "Hg (May 16, 4:50 AM)
Low32 °F (May 16, 4:50 AM)29% (May 23, 3:20 PM)29.59 "Hg (May 19, 12:50 PM)
Average50 °F71%29.82 "Hg
* Reported May 14 4:20 AM — May 29 4:20 AM, Norrköping, Weather by CustomWeather, © 2015

Note: Actual official high and low records may vary slightly from our data, if they occured in-between our weather recording intervals... More about our weather records

Advertising

Norrköping weather history for previous 24 hours

 ConditionsComfort  
Time TempWeatherWind HumidityBarometerVisibility
4:20 AM
Fri, May 29
43 °FQuite cool.6 mph93%29.65 "HgN/A
3:20 AM46 °FPassing clouds.9 mph87%29.65 "HgN/A
2:50 AM45 °FPassing clouds.9 mph93%29.65 "HgN/A
2:20 AM46 °FCool.9 mph87%29.62 "HgN/A
1:50 AM46 °FCool.8 mph93%29.62 "HgN/A
1:20 AM46 °FCool.8 mph93%29.62 "HgN/A
11:50 PM
Thu, May 28
48 °FCool.7 mph100%29.62 "HgN/A
11:20 PM48 °FPassing clouds.6 mph100%29.62 "HgN/A
10:50 PM50 °FPartly cloudy.8 mph94%29.62 "HgN/A
10:20 PM48 °FPartly sunny.8 mph100%29.62 "HgN/A
9:50 PM48 °FPassing clouds.5 mph100%29.62 "HgN/A
9:20 PM48 °FPassing clouds.3 mph100%29.62 "HgN/A
8:50 PM50 °FSunny.2 mph94%29.62 "Hg10 mi
8:20 PM50 °FRain showers. Broken clouds.5 mph94%29.62 "HgN/A
7:50 PM57 °FRain showers. Broken clouds.14 mph72%29.62 "Hg6 mi
7:20 PM57 °FPassing clouds.3 mph67%29.62 "HgN/A
6:50 PM57 °FSprinkles. Partly sunny.3 mph67%29.62 "HgN/A
6:20 PM55 °FSprinkles. Partly sunny.10 mph67%29.65 "HgN/A
5:50 PM57 °FSprinkles. Partly sunny.9 mph59%29.65 "HgN/A
5:20 PM59 °FSprinkles. Partly sunny.12 mph55%29.65 "HgN/A
4:50 PM61 °FScattered showers. Clear.10 mph48%29.65 "HgN/A
4:20 PM59 °FSunny.12 mph48%29.68 "Hg10 mi
3:50 PM61 °FSunny.12 mph48%29.68 "Hg10 mi
3:20 PM59 °FPassing clouds.9 mph45%29.71 "HgN/A
2:50 PM59 °FSunny.10 mph42%29.71 "Hg10 mi
2:20 PM59 °FSunny.10 mph39%29.71 "Hg10 mi
1:50 PM61 °FSunny.10 mph39%29.71 "Hg10 mi
1:20 PM61 °FPassing clouds.10 mph36%29.74 "HgN/A
12:50 PM61 °FPassing clouds.9 mph45%29.74 "HgN/A
12:20 PM59 °FPassing clouds.9 mph42%29.74 "HgN/A
11:50 AM59 °FPassing clouds.5 mph51%29.77 "HgN/A
11:20 AM55 °FPassing clouds.5 mph59%29.77 "HgN/A
10:50 AM57 °FPassing clouds.3 mph55%29.80 "HgN/A
10:20 AM55 °FSunny.7 mph63%29.80 "Hg10 mi
9:50 AM55 °FPassing clouds.6 mph67%29.80 "HgN/A
9:20 AM55 °FPassing clouds.5 mph67%29.80 "HgN/A
8:50 AM52 °FPassing clouds.3 mph72%29.80 "HgN/A
8:20 AM52 °FPassing clouds.6 mph72%29.83 "HgN/A
7:50 AM50 °FSunny.6 mph76%29.83 "Hg10 mi
7:20 AM48 °FSunny.8 mph82%29.83 "Hg10 mi
6:50 AM46 °FSunny.8 mph87%29.83 "Hg10 mi
6:20 AM46 °FCool.5 mph87%29.83 "HgN/A
5:20 AM43 °FQuite cool.3 mph87%29.83 "HgN/A
Weather by CustomWeather, © 2015

See weather overviewHow to use our weather pages